Location: Garbet
(42.8837°N, 1.2115°E)
Time: 15:06:43
(UTC+00:00)

Cosmos 1726 Rocket - Pass Details

Date: 13 December 2025
Orbit: 554 x 663 km, 82.5° (Epoch: 19 January)

Event Time Altitude Azimuth Distance (km) Brightness Sun altitude
Rises 17:06:36 0° 174° (S) 2,984 7.3 -8.2°
Reaches altitude 10° 17:08:54 10° 170° (S) 2,075 6.4 -8.6°
Maximum altitude 17:13:24 54° 94° (E) 806 3.8 -9.3°
Drops below altitude 10° 17:17:53 10° 18° (NNE) 2,062 5.9 -10.1°
Sets 17:20:09 0° 13° (NNE) 2,963 6.7 -10.5°
